TimeEDT,TemperatureF,Dew PointF,Humidity,Sea Level PressureIn,VisibilityMPH,Wind Direction,Wind SpeedMPH,Gust SpeedMPH,PrecipitationIn,Events,Conditions,WindDirDegrees,DateUTC
12:55 AM,57.9,57.2,97,30.15,10.0,Calm,Calm,-,N/A,,Clear,0,2012-10-11 04:55:00
1:55 AM,56.8,56.3,98,30.15,10.0,Calm,Calm,-,N/A,,Clear,0,2012-10-11 05:55:00
2:55 AM,55.2,54.9,99,30.15,10.0,Calm,Calm,-,N/A,,Clear,0,2012-10-11 06:55:00
3:55 AM,53.8,53.2,98,30.15,10.0,Calm,Calm,-,N/A,,Clear,0,2012-10-11 07:55:00
4:55 AM,54.7,54.1,98,30.14,10.0,Calm,Calm,-,N/A,,Clear,0,2012-10-11 08:55:00
5:55 AM,54.5,53.8,97,30.16,10.0,Calm,Calm,-,N/A,,Clear,0,2012-10-11 09:55:00
6:55 AM,54.1,53.4,97,30.17,10.0,Calm,Calm,-,N/A,,Clear,0,2012-10-11 10:55:00
7:55 AM,54.7,52.7,93,30.19,10.0,Calm,Calm,-,N/A,,Clear,0,2012-10-11 11:55:00
8:55 AM,61.0,54.1,78,30.22,10.0,North,4.6,-,N/A,,Clear,360,2012-10-11 12:55:00
9:55 AM,65.1,54.5,68,30.24,10.0,NNE,9.2,-,N/A,,Clear,30,2012-10-11 13:55:00
10:55 AM,69.3,55.0,60,30.25,10.0,North,6.9,-,N/A,,Clear,10,2012-10-11 14:55:00
11:55 AM,72.0,55.0,55,30.26,10.0,North,6.9,-,N/A,,Clear,360,2012-10-11 15:55:00
12:55 PM,74.1,54.1,50,30.25,10.0,Calm,Calm,-,N/A,,Clear,0,2012-10-11 16:55:00
1:55 PM,75.7,52.0,43,30.22,10.0,NNE,6.9,-,N/A,,Clear,30,2012-10-11 17:55:00
2:55 PM,76.6,52.3,43,30.21,10.0,Calm,Calm,-,N/A,,Clear,0,2012-10-11 18:55:00
3:55 PM,77.5,52.7,42,30.20,10.0,NNE,5.8,-,N/A,,Clear,20,2012-10-11 19:55:00
4:55 PM,76.8,51.8,42,30.20,10.0,ENE,5.8,-,N/A,,Clear,60,2012-10-11 20:55:00
5:55 PM,75.9,53.1,45,30.19,10.0,Calm,Calm,-,N/A,,Clear,0,2012-10-11 21:55:00
6:55 PM,69.6,60.6,73,30.20,10.0,East,4.6,-,N/A,,Clear,90,2012-10-11 22:55:00
7:55 PM,66.0,60.6,83,30.22,10.0,Calm,Calm,-,N/A,,Clear,0,2012-10-11 23:55:00
8:55 PM,62.8,60.1,91,30.22,10.0,Calm,Calm,-,N/A,,Clear,0,2012-10-12 00:55:00
9:55 PM,60.1,58.8,96,30.24,10.0,Calm,Calm,-,N/A,,Clear,0,2012-10-12 01:55:00
10:55 PM,59.9,58.5,95,30.24,10.0,Calm,Calm,-,N/A,,Clear,0,2012-10-12 02:55:00
11:55 PM,58.8,57.7,96,30.22,10.0,Calm,Calm,-,N/A,,Clear,0,2012-10-12 03:55:00